Location: Newark
(7.1028°S, 35.3258°W)
Time: 14:20:46
(UTC+00:00)

Vanguard 3 - Pass Details

Date: 25 February 2020
Orbit: 508 x 3263 km, 33.4° (Epoch: 06 April)

Event Time Altitude Azimuth Distance (km) Brightness Sun altitude
Rises 21:30:06 0° 282° (WNW) 6,728 13.2 -12.5°
Reaches altitude 10° 21:34:40 10° 276° (W) 5,935 12.8 -13.6°
Maximum altitude 21:52:58 46° 208° (SSW) 3,934 10.8 -18.1°
Drops below altitude 10° 22:09:32 10° 139° (SE) 5,372 11.0 -22.1°
Sets 22:13:29 0° 132° (SE) 6,069 11.3 -23.0°
